[[{"header":{"parameterUnit":"m.s-1","parameterCategory":1,"la1":30.2991,"la2":30.254,"lo1":-89.0895,"lo2":-89.0444,"dy":0.0017,"dx":0.0017,"nx":28,"ny":28,"refTime":"2025-07-13T21:00:00:Z","depth":0,"parameterNumber":2,"parameterNumberName":"U-component_of_WINDS"},"data":[0,0,0,0,0,0,0,0,0,0,0,0,0,0,0,0,0,0,0,0,0,0,0,0,0,0,0,0,0,0,0,0,0,0,0,0,0,0,0,0,0,0,0,0,0,0,0,0,0,0,0,0,0,0,0,0,0,0,0.924,0.9241,0,0.929,0.9291,0.9292,0.9321,0.9321,0.9321,0.9321,0.9375,0.9377,0.9378,0,0,0,0,0,0,0,0,0,0,0,0,0,0.9172,0.9173,0.924,0.9241,0.9241,0.929,0.9291,0.9292,0.9321,0.9321,0.9321,0.9321,0.9375,0.9377,0.9378,0,0,0,0,0,0,0,0,0,0,0,0,0,0.921,0.9173,0.924,0.9262,0.9264,0.929,0.9291,0.9292,0.9321,0.9321,0.9321,0.9321,0.9374,0.9376,0.9378,0.9388,0,0,0.9385,0.9385,0,0,0,0,0,0,0,0,0.9207,0.9212,0.9258,0.926,0.9263,0.9299,0.9287,0.9324,0.9321,0.9299,0.9321,0.9321,0.935,0.9354,0.9363,0.939,0.9393,0.9385,0.9386,0.9387,0.9387,0,0,0,0,0,0,0,0.9205,0.921,0.926,0.9258,0.9262,0.927,0.9275,0.9294,0.9323,0.9301,0.9303,0.9309,0.9352,0.9361,0.9365,0.9393,0.9385,0.9386,0.9388,0.9389,0.9431,0.9431,0,0,0,0,0,0,0.9198,0.9208,0.9258,0.9262,0.9235,0.9271,0.9277,0.9288,0.9323,0.9329,0.9309,0.931,0.9358,0.9363,0.9367,0.9381,0.9387,0.9389,0.939,0.9431,0.9431,0.9431,0,0,0,0,0,0,0.9197,0.9202,0.9256,0.9235,0.9243,0.9272,0.9283,0.9289,0.9298,0.9329,0.9334,0.9313,0.9358,0.9364,0.9382,0.9383,0.939,0.9391,0.9431,0.9431,0.9431,0.9408,0,0,0,0,0,0,0.9195,0.9202,0.9205,0.9235,0.9244,0.927,0.9283,0.9289,0.9301,0.9304,0.9334,0.934,0.9359,0.9379,0.9384,0.9386,0.9393,0.9432,0.9431,0.9431,0.9409,0.9407,0.9405,0,0,0,0,0,0.9192,0.9197,0.9205,0.9211,0.9248,0.927,0.9275,0.9296,0.9301,0.9305,0.9325,0.9339,0.9382,0.9381,0.9387,0.9389,0.9432,0.9431,0.9431,0.9409,0.9407,0.9405,0,0,0,0,0,0,0.9167,0.9201,0.9211,0.9225,0.9244,0.9275,0.928,0.9293,0.9312,0.9313,0.934,0.9346,0.9362,0.9378,0.9376,0.94,0.9408,0.9409,0.939,0.9388,0.9386,0.9382,0.9395,0,0,0,0,0,0.9163,0.9177,0.9206,0.9216,0.9225,0.9251,0.9261,0.9276,0.9297,0.9306,0.9327,0.9348,0.9366,0.9378,0.9397,0.9411,0.9419,0.9415,0.9414,0.9412,0.9413,0.9422,0.9422,0.9431,0.9431,0.9431,0,0,0.9155,0.9175,0.9183,0.9212,0.9228,0.9243,0.9258,0.9273,0.9284,0.9308,0.9327,0.9343,0.9368,0.9385,0.9393,0.9398,0.9412,0.9412,0.9411,0.9412,0.9422,0.9421,0.942,0.9431,0.9431,0.9431,0,0,0.9148,0.9164,0.9175,0.9191,0.9216,0.9233,0.9235,0.9264,0.9275,0.9294,0.9313,0.9327,0.9358,0.9375,0.9388,0.9388,0.9402,0.9394,0.9385,0.9394,0.9393,0.9393,0.9393,0.9393,0.9394,0.9394,0.9394,0,0.9135,0.9157,0.9178,0.9192,0.9205,0.9227,0.9238,0.9253,0.9283,0.9291,0.9296,0.9336,0.9354,0.9375,0.9375,0.9385,0.9389,0.939,0.9391,0.9391,0.9391,0.9392,0.9392,0.9393,0.9393,0.9393,0.9393,0,0.9141,0.9156,0.9161,0.9188,0.9202,0.9214,0.9238,0.9249,0.9263,0.9279,0.9299,0.9322,0.9345,0.9351,0.9365,0.9375,0.9377,0.9386,0.9395,0.9389,0.939,0.939,0.9391,0.9392,0.9392,0.9392,0,0,0.9119,0.9158,0.916,0.9173,0.9202,0.9214,0.9228,0.925,0.926,0.928,0.9292,0.9318,0.9327,0.9341,0.9357,0.9365,0.9364,0.9374,0.9375,0.9371,0.9377,0.937,0.937,0.9373,0.9373,0.9373,0.9375,0,0.9117,0.9141,0.9161,0.9179,0.9194,0.9215,0.9227,0.9246,0.9263,0.9278,0.9297,0.9315,0.9325,0.9334,0.9342,0.9362,0.9366,0.9362,0.9386,0.9387,0.9379,0.937,0.9363,0.9363,0.9375,0.9375,0.9376,0,0.9117,0.9136,0.9154,0.9182,0.9189,0.9199,0.9222,0.9236,0.9259,0.9271,0.9287,0.9303,0.932,0.9326,0.935,0.9347,0.9359,0.937,0.9371,0.9374,0.9381,0.9374,0.9364,0.9364,0.9376,0.9376,0.9376,0,0.91,0.913,0.9145,0.9155,0.9188,0.9195,0.9209,0.9232,0.9244,0.9264,0.9273,0.9294,0.9307,0.9324,0.9346,0.9349,0.9367,0.9376,0.9378,0.9377,0.9381,0.9381,0.9373,0.9388,0.9388,0.9388,0.9388,0,0.9096,0.9107,0.9138,0.9147,0.916,0.9183,0.9196,0.9212,0.9232,0.9246,0.9266,0.9278,0.9307,0.9323,0.9341,0.9358,0.9363,0.9373,0.9378,0.9372,0.9371,0.938,0.938,0.9388,0.9388,0.9388,0.9388,0,0.9079,0.91,0.9118,0.9147,0.9155,0.9163,0.9189,0.9199,0.9217,0.9234,0.9239,0.9267,0.9287,0.931,0.9339,0.9351,0.9367,0.9373,0.9358,0.9361,0.9362,0.9362,0.936,0.9361,0.9374,0.9374,0.9374,0,0.9075,0.9084,0.9114,0.9124,0.9137,0.9153,0.9165,0.9189,0.9201,0.9228,0.9235,0.9257,0.9275,0.9307,0.933,0.9352,0.936,0.9357,0.9363,0.9357,0.936,0.9359,0.9361,0.9356,0.9356,0.9356,0.9355,0,0.9066,0.9076,0.9092,0.9113,0.9127,0.9144,0.9163,0.917,0.9197,0.9211,0.9231,0.9245,0.9274,0.9295,0.932,0.9336,0.935,0.9353,0.9355,0.9349,0.934,0.9345,0.9355,0.9353,0.9354,0.9354,0.9354,0.9354,0.9056,0.9064,0.9087,0.9105,0.9121,0.9138,0.9149,0.9167,0.9184,0.9209,0.9222,0.9242,0.9266,0.93,0.9315,0.9332,0.9337,0.934,0.934,0.9341,0.9339,0.9337,0.9337,0.9337,0.9337,0.9337,0.9337,0,0.9048,0.9063,0.9079,0.9104,0.9118,0.913,0.9151,0.9163,0.918,0.92,0.9218,0.9241,0.9262,0.9287,0.931,0.9319,0.9326,0.9324,0.9324,0.9327,0.9333,0.9329,0.9318,0.9318,0.9318,0.9318,0.9318,0.9318,0.9045,0.9061,0.9073,0.9098,0.9113,0.9132,0.9143,0.9159,0.9176,0.9201,0.9218,0.9234,0.9256,0.9281,0.9301,0.9308,0.9315,0.9311,0.932,0.9325,0.9327,0.9328,0.9325,0.9312,0.9312,0.9313,0.9313,0.9313]},{"header":{"parameterUnit":"m.s-1","parameterCategory":1,"la1":30.2991,"la2":30.254,"lo1":-89.0895,"lo2":-89.0444,"dy":0.0017,"dx":0.0017,"nx":28,"ny":28,"refTime":"2025-07-13T21:00:00:Z","depth":0,"parameterNumber":3,"parameterNumberName":"V-component_of_WINDS"},"data":[0,0,0,0,0,0,0,0,0,0,0,0,0,0,0,0,0,0,0,0,0,0,0,0,0,0,0,0,0,0,0,0,0,0,0,0,0,0,0,0,0,0,0,0,0,0,0,0,0,0,0,0,0,0,0,0,0,0,-0.5229,-0.523,0,-0.535,-0.5352,-0.5353,-0.5411,-0.5411,-0.541,-0.541,-0.5537,-0.554,-0.5544,0,0,0,0,0,0,0,0,0,0,0,0,0,-0.5048,-0.5051,-0.5228,-0.523,-0.5231,-0.535,-0.5352,-0.5354,-0.5411,-0.5411,-0.541,-0.541,-0.5536,-0.554,-0.5544,0,0,0,0,0,0,0,0,0,0,0,0,0,-0.5143,-0.5051,-0.5228,-0.5274,-0.528,-0.535,-0.5352,-0.5354,-0.5411,-0.5411,-0.541,-0.541,-0.5534,-0.5539,-0.5545,-0.5579,0,0,-0.556,-0.5563,0,0,0,0,0,0,0,0,-0.5138,-0.515,-0.5266,-0.5271,-0.5277,-0.5365,-0.5335,-0.5429,-0.5411,-0.5361,-0.541,-0.541,-0.548,-0.549,-0.5513,-0.5585,-0.559,-0.5561,-0.5564,-0.5566,-0.5568,0,0,0,0,0,0,0,-0.5131,-0.5145,-0.5277,-0.5268,-0.5275,-0.529,-0.5303,-0.5353,-0.542,-0.5365,-0.537,-0.5383,-0.5483,-0.5508,-0.5516,-0.5592,-0.5561,-0.5565,-0.5568,-0.557,-0.57,-0.57,0,0,0,0,0,0,-0.5117,-0.5139,-0.5273,-0.528,-0.5206,-0.5293,-0.5308,-0.5337,-0.5419,-0.5432,-0.5383,-0.5385,-0.5499,-0.551,-0.5521,-0.5568,-0.5566,-0.5571,-0.5574,-0.57,-0.57,-0.57,0,0,0,0,0,0,-0.5113,-0.5128,-0.5268,-0.5211,-0.523,-0.5296,-0.5328,-0.534,-0.5364,-0.5433,-0.5445,-0.5396,-0.5499,-0.5514,-0.5564,-0.5573,-0.5573,-0.5578,-0.5699,-0.57,-0.57,-0.5661,0,0,0,0,0,0,-0.5107,-0.5126,-0.5139,-0.5211,-0.5233,-0.5308,-0.5329,-0.5342,-0.5373,-0.5377,-0.5448,-0.546,-0.55,-0.5556,-0.5569,-0.558,-0.5582,-0.5699,-0.5699,-0.57,-0.5661,-0.566,-0.5658,0,0,0,0,0,-0.5101,-0.5123,-0.514,-0.5155,-0.525,-0.5309,-0.5321,-0.5367,-0.5373,-0.5387,-0.5432,-0.5458,-0.5569,-0.5561,-0.5576,-0.5588,-0.5698,-0.5699,-0.57,-0.5662,-0.566,-0.5658,0,0,0,0,0,0,-0.5051,-0.5133,-0.5153,-0.5199,-0.5246,-0.5318,-0.5338,-0.5363,-0.541,-0.5412,-0.5467,-0.5483,-0.5529,-0.5564,-0.5553,-0.5627,-0.5637,-0.564,-0.5602,-0.5601,-0.5599,-0.559,-0.5586,0,0,0,0,0,-0.5045,-0.5085,-0.5155,-0.519,-0.5212,-0.5271,-0.5298,-0.5329,-0.5381,-0.5401,-0.5449,-0.5499,-0.5546,-0.5575,-0.5622,-0.5666,-0.5684,-0.5683,-0.5681,-0.5679,-0.5682,-0.571,-0.5711,-0.5703,-0.5703,-0.5703,0,0,-0.5034,-0.5084,-0.5106,-0.5181,-0.5221,-0.5263,-0.5287,-0.5329,-0.5361,-0.5408,-0.5459,-0.5496,-0.5555,-0.5603,-0.5627,-0.5634,-0.5688,-0.568,-0.5678,-0.5683,-0.5711,-0.5712,-0.5713,-0.5704,-0.5703,-0.5703,0,0,-0.5036,-0.5077,-0.5111,-0.5151,-0.5212,-0.5251,-0.5258,-0.5327,-0.5353,-0.5405,-0.5442,-0.548,-0.5559,-0.56,-0.5631,-0.5649,-0.5676,-0.5663,-0.5655,-0.5681,-0.5682,-0.5683,-0.5691,-0.5693,-0.5666,-0.5665,-0.5665,0,-0.5015,-0.5077,-0.5125,-0.5165,-0.5198,-0.5242,-0.5277,-0.5314,-0.5387,-0.5409,-0.5415,-0.5516,-0.5559,-0.5618,-0.5623,-0.5646,-0.5658,-0.5655,-0.5678,-0.5679,-0.5681,-0.5689,-0.5692,-0.5664,-0.5664,-0.5664,-0.5664,0,-0.5049,-0.5092,-0.5112,-0.5182,-0.5216,-0.5254,-0.5308,-0.5338,-0.5366,-0.5404,-0.5458,-0.5511,-0.5569,-0.5586,-0.5613,-0.5649,-0.5652,-0.5667,-0.5678,-0.5679,-0.5688,-0.5691,-0.5661,-0.5662,-0.5662,-0.5663,0,0,-0.5023,-0.5118,-0.5125,-0.5158,-0.5229,-0.5263,-0.5304,-0.5361,-0.5386,-0.5435,-0.5471,-0.5537,-0.5552,-0.5587,-0.5621,-0.5644,-0.5656,-0.5657,-0.5659,-0.5656,-0.5701,-0.569,-0.5692,-0.5674,-0.5675,-0.5675,-0.5697,0,-0.5035,-0.5108,-0.5153,-0.5209,-0.525,-0.5293,-0.5328,-0.5376,-0.5413,-0.5454,-0.5496,-0.5542,-0.5558,-0.558,-0.5604,-0.5649,-0.5666,-0.5648,-0.5709,-0.5711,-0.5694,-0.5697,-0.5685,-0.5702,-0.57,-0.5701,-0.5701,0,-0.5058,-0.5107,-0.5166,-0.5234,-0.5253,-0.5284,-0.5341,-0.5379,-0.5435,-0.546,-0.55,-0.5534,-0.5579,-0.5586,-0.565,-0.5637,-0.5664,-0.569,-0.5692,-0.57,-0.5707,-0.5706,-0.5709,-0.5712,-0.5707,-0.5706,-0.5706,0,-0.5035,-0.5115,-0.5161,-0.5188,-0.5267,-0.5288,-0.5323,-0.5378,-0.541,-0.546,-0.5482,-0.5536,-0.5566,-0.5608,-0.5656,-0.5656,-0.5716,-0.5726,-0.5739,-0.5738,-0.5751,-0.5749,-0.5759,-0.5766,-0.5766,-0.5766,-0.5766,0,-0.5044,-0.5079,-0.5152,-0.5181,-0.5222,-0.5273,-0.5313,-0.5351,-0.54,-0.5438,-0.5478,-0.5513,-0.5573,-0.5616,-0.5653,-0.5702,-0.5715,-0.5738,-0.5748,-0.5735,-0.5732,-0.5754,-0.5755,-0.5767,-0.5767,-0.5767,-0.5766,0,-0.5025,-0.5075,-0.5129,-0.52,-0.5219,-0.5246,-0.5307,-0.5338,-0.5377,-0.5424,-0.5438,-0.5501,-0.5553,-0.5604,-0.5675,-0.57,-0.5748,-0.5761,-0.5729,-0.5735,-0.5746,-0.5745,-0.5771,-0.5778,-0.5779,-0.5779,-0.5779,0,-0.5028,-0.5056,-0.5131,-0.5159,-0.5192,-0.5237,-0.527,-0.5321,-0.5354,-0.5421,-0.5443,-0.5498,-0.5545,-0.5627,-0.5679,-0.5733,-0.5748,-0.5754,-0.5757,-0.5743,-0.575,-0.5748,-0.5752,-0.5752,-0.5752,-0.5752,-0.5752,0,-0.5029,-0.5053,-0.5098,-0.5153,-0.5191,-0.5237,-0.5284,-0.5305,-0.5366,-0.5401,-0.5455,-0.5491,-0.5563,-0.5618,-0.5679,-0.5715,-0.5744,-0.575,-0.5757,-0.5744,-0.5726,-0.5737,-0.5727,-0.575,-0.575,-0.575,-0.575,-0.575,-0.5022,-0.505,-0.5107,-0.5157,-0.5198,-0.5241,-0.5274,-0.5317,-0.5363,-0.5425,-0.5453,-0.5508,-0.5564,-0.5649,-0.5685,-0.5729,-0.5736,-0.5745,-0.5747,-0.5749,-0.5747,-0.5717,-0.574,-0.574,-0.574,-0.574,-0.5741,0,-0.5027,-0.5065,-0.5111,-0.5176,-0.5216,-0.5239,-0.5292,-0.5324,-0.5372,-0.5422,-0.5467,-0.553,-0.5583,-0.564,-0.5697,-0.5722,-0.5736,-0.5735,-0.5734,-0.5743,-0.5736,-0.5726,-0.5722,-0.5722,-0.5722,-0.5722,-0.5722,-0.5722,-0.5033,-0.5082,-0.5112,-0.5182,-0.5221,-0.5275,-0.5304,-0.5345,-0.5385,-0.5453,-0.5498,-0.5534,-0.5587,-0.5648,-0.5699,-0.5715,-0.5734,-0.5729,-0.5748,-0.5742,-0.5743,-0.5744,-0.5735,-0.5733,-0.5733,-0.5751,-0.5752,-0.5752]}]]